DW5963 Weather Reports


time (UTC)temp
F
wind
direction
speed
knots
gust
knots
rain 1hr
in
rain 24hr
in
rain mn
in
humidity
%
barometer
mb
20260507193106 62 360 2.6 0.0 0.00 0.00 0.00 22 1011.1
20260507192552 62 360 4.3 0.0 0.00 0.00 0.00 21 1011.2
20260507192051 62 360 3.5 0.0 0.00 0.00 0.00 21 1011.2
20260507191551 62 360 4.3 0.0 0.00 0.00 0.00 21 1011.4
20260507191049 61 360 4.3 0.0 0.00 0.00 0.00 22 1011.3
20260507190548 61 360 3.5 0.0 0.00 0.00 0.00 23 1011.5
20260507190056 60 360 2.6 0.0 0.00 0.00 0.00 22 1011.5
20260507185547 61 360 3.5 0.0 0.00 0.00 0.00 22 1011.6
20260507185046 60 360 4.3 0.0 0.00 0.00 0.00 22 1011.7
20260507184545 60 360 5.2 0.0 0.00 0.00 0.00 22 1011.8
20260507184048 60 360 5.2 0.0 0.00 0.00 0.00 22 1011.9
20260507183049 59 360 4.3 0.0 0.00 0.00 0.00 23 1012.0
20260507182551 60 360 5.2 0.0 0.00 0.00 0.00 22 1012.1
20260507182047 60 360 5.2 0.0 0.00 0.00 0.00 23 1012.1
20260507181545 60 360 5.2 0.0 0.00 0.00 0.00 22 1012.3
20260507181044 60 360 4.3 0.0 0.00 0.00 0.00 22 1012.4
20260507180544 59 360 3.5 0.0 0.00 0.00 0.00 23 1012.4
20260507180050 59 360 2.6 0.0 0.00 0.00 0.00 23 1012.5
20260507175542 59 360 2.6 0.0 0.00 0.00 0.00 23 1012.4
20260507175040 58 360 2.6 0.0 0.00 0.00 0.00 24 1012.6
20260507174541 58 360 1.7 0.0 0.00 0.00 0.00 23 1012.5
20260507174041 58 360 2.6 0.0 0.00 0.00 0.00 23 1012.6
20260507173036 57 360 3.5 0.0 0.00 0.00 0.00 24 1012.7
20260507172538 57 360 3.5 0.0 0.00 0.00 0.00 23 1012.7
20260507172035 58 360 2.6 0.0 0.00 0.00 0.00 23 1012.7
20260507171534 57 360 2.6 0.0 0.00 0.00 0.00 24 1012.7
20260507171034 57 360 1.7 0.0 0.00 0.00 0.00 24 1012.8
20260507170532 56 360 2.6 0.0 0.00 0.00 0.00 24 1012.7
20260507170034 56 360 2.6 0.0 0.00 0.00 0.00 24 1012.8
20260507165530 55 360 1.7 0.0 0.00 0.00 0.00 24 1012.9
20260507165034 55 360 1.7 0.0 0.00 0.00 0.00 24 1012.9
20260507164531 55 360 2.6 0.0 0.00 0.00 0.00 24 1012.9
20260507164033 55 360 1.7 0.0 0.00 0.00 0.00 24 1013.0
20260507163031 55 360 2.6 0.0 0.00 0.00 0.00 24 1013.0
20260507162529 55 360 3.5 0.0 0.00 0.00 0.00 24 1013.1
20260507162028 54 360 3.5 0.0 0.00 0.00 0.00 25 1013.1
20260507161528 54 360 3.5 0.0 0.00 0.00 0.00 24 1013.1
20260507161027 54 360 2.6 0.0 0.00 0.00 0.00 25 1013.2
20260507160528 53 360 2.6 0.0 0.00 0.00 0.00 26 1013.2
20260507160025 53 360 2.6 0.0 0.00 0.00 0.00 25 1013.2
20260507155525 53 360 2.6 0.0 0.00 0.00 0.00 27 1013.2
20260507155024 52 360 2.6 0.0 0.00 0.00 0.00 28 1013.2
20260507154523 52 360 2.6 0.0 0.00 0.00 0.00 28 1013.3
20260507154022 52 360 2.6 0.0 0.00 0.00 0.00 33 1013.2
20260507153020 51 360 2.6 0.0 0.00 0.00 0.00 34 1013.2
20260507152518 50 360 3.5 0.0 0.00 0.00 0.00 37 1013.1
20260507152018 50 360 2.6 0.0 0.00 0.00 0.00 38 1013.2
20260507151517 49 360 2.6 0.0 0.00 0.00 0.00 38 1013.2
20260507151015 49 360 2.6 0.0 0.00 0.00 0.00 38 1013.2
20260507150517 49 360 2.6 0.0 0.00 0.00 0.00 38 1013.3
20260507150013 48 360 1.7 0.0 0.00 0.00 0.00 39 1013.4
20260507145512 48 360 1.7 0.0 0.00 0.00 0.00 39 1013.4
20260507145011 47 360 1.7 0.0 0.00 0.00 0.00 39 1013.5
20260507144509 47 360 0.9 0.0 0.00 0.00 0.00 39 1013.6
20260507144008 46 360 0.9 0.0 0.00 0.00 0.00 41 1013.6
20260507143005 45 360 0.9 0.0 0.00 0.00 0.00 41 1013.6
20260507142504 44 360 0.9 0.0 0.00 0.00 0.00 42 1013.6
20260507142006 44 360 0.9 0.0 0.00 0.00 0.00 44 1013.6
20260507141502 43 360 0.9 0.0 0.00 0.00 0.00 45 1013.6
20260507141002 43 360 0.9 0.0 0.00 0.00 0.00 45 1013.6
20260507140600 43 360 0.9 0.0 0.00 0.00 0.00 46 1013.6
20260507140122 42 360 0.0 0.0 0.00 0.00 0.00 48 1013.5
20260507135557 41 360 0.0 0.0 0.00 0.00 0.00 50 1013.5
20260507135055 40 360 0.9 0.0 0.00 0.00 0.00 50 1013.6
20260507134555 39 360 0.9 0.0 0.00 0.00 0.00 49 1013.5
20260507134054 39 360 0.0 0.0 0.00 0.00 0.00 51 1013.5
20260507133656 38 360 0.0 0.0 0.00 0.00 0.00 54 1013.5
20260507133053 37 360 0.0 0.0 0.00 0.00 0.00 55 1013.5
20260507132651 37 360 0.0 0.0 0.00 0.00 0.00 56 1013.5
20260507132050 36 360 0.0 0.0 0.00 0.00 0.00 57 1013.6
20260507131601 35 360 0.0 0.0 0.00 0.00 0.00 59 1013.5
20260507131052 34 360 0.0 0.0 0.00 0.00 0.00 61 1013.6
20260507130546 33 360 0.0 0.0 0.00 0.00 0.00 64 1013.6
20260507130051 31 360 0.0 0.0 0.00 0.00 0.00 66 1013.7
20260507125544 30 360 0.0 0.0 0.00 0.00 0.00 65 1013.7
20260507125042 29 360 0.0 0.0 0.00 0.00 0.00 66 1013.8
20260507124552 29 360 0.0 0.0 0.00 0.00 0.00 68 1013.6
20260507124040 28 360 0.0 0.0 0.00 0.00 0.00 70 1013.6
20260507123639 27 360 0.0 0.0 0.00 0.00 0.00 71 1013.5
20260507123052 26 360 0.0 0.0 0.00 0.00 0.00 71 1013.5
20260507122640 26 360 0.0 0.0 0.00 0.00 0.00 72 1013.4
20260507122036 24 360 0.0 0.0 0.00 0.00 0.00 72 1013.3
20260507121541 23 360 0.0 0.0 0.00 0.00 0.00 73 1013.3
20260507121033 22 360 0.9 0.0 0.00 0.00 0.00 73 1013.2
20260507120533 22 360 1.7 0.0 0.00 0.00 0.00 73 1013.2
20260507120032 21 360 1.7 0.0 0.00 0.00 0.00 72 1013.3
20260507115533 20 360 1.7 0.0 0.00 0.00 0.00 73 1013.2
20260507115031 20 360 1.7 0.0 0.00 0.00 0.00 73 1013.3
20260507114531 19 360 1.7 0.0 0.00 0.00 0.00 73 1013.2
20260507114031 18 360 1.7 0.0 0.00 0.00 0.00 72 1013.2
20260507113631 18 360 1.7 0.0 0.00 0.00 0.00 71 1013.1
20260507113035 18 360 0.9 0.0 0.00 0.00 0.00 70 1013.1
20260507112532 19 360 0.9 0.0 0.00 0.00 0.00 70 1013.2
20260507112031 19 360 0.9 0.0 0.00 0.00 0.00 71 1013.2
20260507111532 18 360 1.7 0.0 0.00 0.00 0.00 70 1013.2
20260507111030 18 360 1.7 0.0 0.00 0.00 0.00 69 1013.1
20260507110530 19 360 1.7 0.0 0.00 0.00 0.00 69 1013.3
20260507110029 19 360 1.7 0.0 0.00 0.00 0.00 69 1013.3
20260507105528 19 360 1.7 0.0 0.00 0.00 0.00 70 1013.0
20260507105027 18 360 1.7 0.0 0.00 0.00 0.00 68 1013.0
20260507104526 19 360 0.9 0.0 0.00 0.00 0.00 67 1012.9
20260507104027 20 360 1.7 0.0 0.00 0.00 0.00 68 1013.0
20260507103630 20 360 1.7 0.0 0.00 0.00 0.00 69 1013.0
20260507103024 20 360 0.9 0.0 0.00 0.00 0.00 67 1013.0
20260507102523 20 360 0.0 0.0 0.00 0.00 0.00 68 1013.0
20260507102023 20 360 0.0 0.0 0.00 0.00 0.00 68 1013.0
20260507101530 20 360 0.0 0.0 0.00 0.00 0.00 67 1013.0
20260507101023 20 360 0.0 0.0 0.00 0.00 0.00 66 1013.0
20260507100522 21 360 0.0 0.0 0.00 0.00 0.00 66 1013.0
20260507100031 21 360 0.0 0.0 0.00 0.00 0.00 68 1013.0
20260507095522 20 360 0.0 0.0 0.00 0.00 0.00 69 1012.9
20260507095021 19 360 0.0 0.0 0.00 0.00 0.00 67 1013.1
20260507094522 19 360 0.0 0.0 0.00 0.00 0.00 66 1013.1
20260507094019 20 360 0.0 0.0 0.00 0.00 0.00 66 1013.0
20260507093619 20 360 0.0 0.0 0.00 0.00 0.00 64 1013.0
20260507093103 20 360 0.0 0.0 0.00 0.00 0.00 65 1012.9
20260507092600 21 360 0.9 0.0 0.00 0.00 0.00 64 1013.0
20260507092059 21 360 0.9 0.0 0.00 0.00 0.00 65 1013.0
20260507091606 21 360 0.9 0.0 0.00 0.00 0.00 66 1013.0
20260507091059 20 360 0.9 0.0 0.00 0.00 0.00 66 1013.0
20260507090558 20 360 1.7 0.0 0.00 0.00 0.00 65 1012.9
20260507090005 21 360 1.7 0.0 0.00 0.00 0.00 65 1012.9
20260507085504 21 360 1.7 0.0 0.00 0.00 0.00 65 1013.0
20260507085004 20 360 1.7 0.0 0.00 0.00 0.00 66 1012.9
20260507084502 20 360 1.7 0.0 0.00 0.00 0.00 66 1013.0
20260507084004 20 360 1.7 0.0 0.00 0.00 0.00 65 1013.0
20260507083503 20 360 1.7 0.0 0.00 0.00 0.00 65 1012.9
20260507083002 19 360 1.7 0.0 0.00 0.00 0.00 64 1012.9
20260507082501 20 360 1.7 0.0 0.00 0.00 0.00 63 1013.0
20260507082100 20 360 0.9 0.0 0.00 0.00 0.00 63 1013.0
20260507081559 20 360 0.9 0.0 0.00 0.00 0.00 63 1013.0
20260507081059 21 360 0.9 0.0 0.00 0.00 0.00 63 1013.0
20260507080600 21 360 0.9 0.0 0.00 0.00 0.00 62 1013.0
20260507075558 21 360 1.7 0.0 0.00 0.00 0.00 63 1013.0
20260507075058 21 360 1.7 0.0 0.00 0.00 0.00 62 1013.0
20260507074604 20 360 1.7 0.0 0.00 0.00 0.00 61 1013.0
20260507074059 21 360 1.7 0.0 0.00 0.00 0.00 61 1013.1
20260507073556 21 360 1.7 0.0 0.00 0.00 0.00 61 1013.1
20260507073106 21 360 1.7 0.0 0.00 0.00 0.00 61 1013.1
20260507072555 21 360 1.7 0.0 0.00 0.00 0.00 60 1013.1
20260507072056 21 360 1.7 0.0 0.00 0.00 0.00 59 1013.1
20260507071602 21 360 1.7 0.0 0.00 0.00 0.00 58 1013.1
20260507071051 22 360 1.7 0.0 0.00 0.00 0.00 58 1013.0
20260507070551 23 360 0.9 0.0 0.00 0.00 0.00 58 1013.0
20260507065552 23 360 0.9 0.0 0.00 0.00 0.00 58 1013.0
20260507065049 23 360 1.7 0.0 0.00 0.00 0.00 58 1013.0
20260507064554 23 360 1.7 0.0 0.00 0.00 0.00 57 1013.0
20260507064049 23 360 1.7 0.0 0.00 0.00 0.00 56 1013.0
20260507063549 23 360 1.7 0.0 0.00 0.00 0.00 57 1013.0
20260507063049 23 360 1.7 0.0 0.00 0.00 0.00 55 1012.9
20260507062547 23 360 1.7 0.0 0.00 0.00 0.00 55 1012.8
20260507062047 24 360 1.7 0.0 0.00 0.00 0.00 54 1012.9
20260507061547 25 360 1.7 0.0 0.00 0.00 0.00 54 1012.8
20260507061046 25 360 0.9 0.0 0.00 0.00 0.00 54 1012.9
20260507060546 25 360 0.9 0.0 0.00 0.00 0.00 54 1012.8
20260507055549 25 360 1.7 0.0 0.00 0.00 0.00 52 1012.8
20260507055049 26 360 1.7 0.0 0.00 0.00 0.00 51 1012.9
20260507054555 26 360 1.7 0.0 0.00 0.00 0.00 50 1012.9
20260507054048 26 360 0.9 0.0 0.00 0.00 0.00 50 1012.8
20260507053547 26 360 0.9 0.0 0.00 0.00 0.00 48 1012.9
20260507053049 27 360 0.9 0.0 0.00 0.00 0.00 46 1012.9
20260507052550 29 360 0.0 0.0 0.00 0.00 0.00 45 1012.9
20260507052046 30 360 0.0 0.0 0.00 0.00 0.00 45 1012.9
20260507051547 31 360 0.0 0.0 0.00 0.00 0.00 44 1012.9
20260507051045 32 360 0.0 0.0 0.00 0.00 0.00 44 1012.9
20260507050545 32 360 0.9 0.0 0.00 0.00 0.00 44 1013.0
20260507045542 32 360 0.9 0.0 0.00 0.00 0.00 44 1013.0
20260507045043 32 360 0.0 0.0 0.00 0.00 0.00 45 1013.0
20260507044543 31 360 0.9 0.0 0.00 0.00 0.00 46 1013.0
20260507044047 31 360 0.9 0.0 0.00 0.00 0.00 46 1013.0
20260507043543 31 360 1.7 0.0 0.00 0.00 0.00 44 1013.0
20260507043043 32 360 1.7 0.0 0.00 0.00 0.00 43 1013.1
20260507042541 33 360 1.7 0.0 0.00 0.00 0.00 43 1013.0
20260507042042 33 360 1.7 0.0 0.00 0.00 0.00 43 1013.0
20260507041542 33 360 1.7 0.0 0.00 0.00 0.00 43 1013.1
20260507041042 34 360 0.9 0.0 0.00 0.00 0.00 43 1013.1
20260507040542 33 360 0.9 0.0 0.00 0.00 0.00 43 1013.1
20260507035541 33 360 2.6 0.0 0.00 0.00 0.00 43 1013.2
20260507035041 34 360 2.6 0.0 0.00 0.00 0.00 42 1013.2
20260507034552 34 360 2.6 0.0 0.00 0.00 0.00 40 1013.1
20260507034041 35 360 3.5 0.0 0.00 0.00 0.00 40 1013.2
20260507033541 36 360 2.6 0.0 0.00 0.00 0.00 40 1013.2
20260507033043 36 360 2.6 0.0 0.00 0.00 0.00 39 1013.2
20260507032544 36 360 2.6 0.0 0.00 0.00 0.00 39 1013.2
20260507032041 37 360 3.5 0.0 0.00 0.00 0.00 38 1013.1
20260507031541 37 360 3.5 0.0 0.00 0.00 0.00 38 1013.2
20260507031041 37 360 3.5 0.0 0.00 0.00 0.00 37 1013.1
20260507030541 37 360 1.7 0.0 0.00 0.00 0.00 38 1013.1
20260507025539 35 360 0.9 0.0 0.00 0.00 0.00 39 1013.2
20260507025040 35 360 0.9 0.0 0.00 0.00 0.00 39 1013.1
20260507024540 36 360 0.9 0.0 0.00 0.00 0.00 38 1013.1
20260507024040 36 360 1.7 0.0 0.00 0.00 0.00 36 1013.0
20260507023539 38 360 1.7 0.0 0.00 0.00 0.00 35 1013.1
20260507023039 40 360 1.7 0.0 0.00 0.00 0.00 33 1013.1
20260507022539 40 360 1.7 0.0 0.00 0.00 0.00 32 1013.0
20260507022039 42 360 0.9 0.0 0.00 0.00 0.00 30 1013.0
20260507021538 43 360 0.9 0.0 0.00 0.00 0.00 29 1013.0
20260507021038 45 360 1.7 0.0 0.00 0.00 0.00 28 1013.0
20260507020539 47 360 1.7 0.0 0.00 0.00 0.00 27 1013.0
20260507015538 50 360 1.7 0.0 0.00 0.00 0.00 26 1013.0
20260507015038 51 360 2.6 0.0 0.00 0.00 0.00 25 1013.0
20260507014538 52 360 3.5 0.0 0.00 0.00 0.00 24 1013.1
20260507014038 53 360 4.3 0.0 0.00 0.00 0.00 23 1013.0
20260507013540 53 360 3.5 0.0 0.00 0.00 0.00 23 1013.1
20260507013039 54 360 4.3 0.0 0.00 0.00 0.00 22 1013.2
20260507012537 54 360 6.1 0.0 0.00 0.00 0.00 22 1013.2
20260507012037 54 360 6.1 0.0 0.00 0.00 0.00 22 1013.1
20260507011540 55 360 5.2 0.0 0.00 0.00 0.00 22 1013.1
20260507011036 55 360 4.3 0.0 0.00 0.00 0.00 22 1013.2
20260507010536 55 360 3.5 0.0 0.00 0.00 0.00 22 1013.2
20260507005535 56 360 2.6 0.0 0.00 0.00 0.00 22 1013.2
20260507005039 56 360 3.5 0.0 0.00 0.00 0.00 22 1013.3
20260507004536 56 360 4.3 0.0 0.00 0.00 0.00 22 1013.3
20260507004035 56 360 6.1 0.0 0.00 0.00 0.00 22 1013.3
20260507003537 56 360 7.0 0.0 0.00 0.00 0.00 22 1013.3
20260507003035 56 360 7.0 0.0 0.00 0.00 0.00 22 1013.2
20260507002534 56 360 7.0 0.0 0.00 0.00 0.00 21 1013.3
20260507002034 56 360 8.7 0.0 0.00 0.00 0.00 21 1013.3
20260507001546 56 360 8.7 0.0 0.00 0.00 0.00 21 1013.4
20260507001034 56 360 6.1 0.0 0.00 0.00 0.00 22 1013.4
20260507000533 56 360 5.2 0.0 0.00 0.00 0.00 22 1013.4
20260506235532 56 360 5.2 0.0 0.00 0.00 0.00 21 1013.6
20260506235032 56 360 6.1 0.0 0.00 0.00 0.00 21 1013.6
20260506234541 56 360 6.1 0.0 0.00 0.00 0.00 21 1013.7
20260506234031 56 360 7.0 0.0 0.00 0.00 0.00 21 1013.7
20260506233533 56 360 7.8 0.0 0.00 0.00 0.00 21 1013.7
20260506233033 56 360 7.0 0.0 0.00 0.00 0.00 21 1013.7
20260506232530 56 360 8.7 0.0 0.00 0.00 0.00 21 1013.8
20260506232030 56 360 9.6 0.0 0.00 0.00 0.00 21 1014.0
20260506231535 56 360 7.8 0.0 0.00 0.00 0.00 21 1013.9
20260506231030 57 360 8.7 0.0 0.00 0.00 0.00 21 1014.0
20260506230530 56 360 9.6 0.0 0.00 0.00 0.00 21 1014.0
20260506225531 57 360 6.1 0.0 0.00 0.00 0.00 21 1013.9
20260506225029 56 360 5.2 0.0 0.00 0.00 0.00 21 1013.9
20260506224530 57 360 7.8 0.0 0.00 0.00 0.00 21 1014.2
20260506224026 57 360 7.8 0.0 0.00 0.00 0.00 21 1014.3
20260506223526 56 360 7.8 0.0 0.00 0.00 0.00 21 1014.3
20260506223025 56 360 6.1 0.0 0.00 0.00 0.00 21 1014.3
20260506222525 56 360 5.2 0.0 0.00 0.00 0.00 22 1014.4
20260506222023 56 360 4.3 0.0 0.00 0.00 0.00 22 1014.4
20260506221523 56 360 4.3 0.0 0.00 0.00 0.00 22 1014.5
20260506221022 55 360 6.1 0.0 0.00 0.00 0.00 22 1014.6
20260506220521 55 360 7.0 0.0 0.00 0.00 0.00 23 1014.8
20260506215520 55 360 7.8 0.0 0.00 0.00 0.00 22 1015.0
20260506215020 55 360 7.0 0.0 0.00 0.00 0.00 23 1015.1
20260506214519 55 360 6.1 0.0 0.00 0.00 0.00 23 1015.1
20260506214019 55 360 7.8 0.0 0.00 0.00 0.00 22 1015.2
20260506213517 55 360 7.0 0.0 0.00 0.00 0.00 22 1015.3
20260506213021 55 360 6.1 0.0 0.00 0.00 0.00 22 1015.5
20260506212520 55 360 5.2 0.0 0.00 0.00 0.00 22 1015.6
20260506212016 55 360 4.3 0.0 0.00 0.00 0.00 23 1015.7
20260506211518 54 360 4.3 0.0 0.00 0.00 0.00 22 1015.7
20260506211014 55 360 7.0 0.0 0.00 0.00 0.00 22 1015.8
20260506210513 55 360 8.7 0.0 0.00 0.00 0.00 22 1015.9
20260506205512 54 360 7.8 0.0 0.00 0.00 0.00 22 1016.0
20260506205011 54 360 6.1 0.0 0.00 0.00 0.00 23 1016.1
20260506204511 53 360 7.0 0.0 0.00 0.00 0.00 23 1016.2
20260506204014 53 360 7.8 0.0 0.00 0.00 0.00 24 1016.3
20260506203509 53 360 7.8 0.0 0.00 0.00 0.00 23 1016.3
20260506203009 53 360 7.8 0.0 0.00 0.00 0.00 23 1016.4
20260506202509 54 360 7.0 0.0 0.00 0.00 0.00 23 1016.5
20260506202009 53 360 5.2 0.0 0.00 0.00 0.00 23 1016.5
20260506201508 53 360 6.1 0.0 0.00 0.00 0.00 24 1016.7
20260506201008 53 360 8.7 0.0 0.00 0.00 0.00 23 1016.8
20260506200507 53 360 7.0 0.0 0.00 0.00 0.00 24 1016.8
20260506195507 53 360 7.8 0.0 0.00 0.00 0.00 23 1016.9
20260506195007 53 360 7.0 0.0 0.00 0.00 0.00 23 1017.0
20260506194505 53 360 7.0 0.0 0.00 0.00 0.00 25 1017.2
20260506194003 52 360 6.1 0.0 0.00 0.00 0.00 25 1017.3